Weather Roundup
Issued by NWS Springfield, MO

Home | Current Version | Previous Version | Text Only | Print | Product List | Glossary On
Versions: 1 2 3 4 5 6 7 8 9 10 11 12 13 14 15 16 17 18 19 20 21 22 23 24 25 26 27 28 29 30 31 32 33 34 35 36 37 38 39 40 41 42 43 44 45 46 47 48 49 50
000
NZUS99 KSGF 290259
HRRSGF

HOURLY WEATHER
NATIONAL WEATHER SERVICE SPRINGFIELD MO
1000 PM CDT MON JUL 28 2014

......SGF CWA......

CITY           SKY/WX    TMP DP  RH WIND       PRES   REMARKS
SPRINGFIELD    CLEAR     69  57  65 N5        30.15R
JOPLIN         CLEAR     73  58  59 NE3       30.15R
WEST PLAINS    CLEAR     69  56  62 N5        30.14R
ROLLA          CLEAR     63  52  67 CALM      30.14R
OSAGE BEACH    CLEAR     66  55  68 CALM      30.15R
BRANSON        CLEAR     72  57  60 NW5       30.16R

......SURROUNDING SGF CWA......

CITY           SKY/WX    TMP DP  RH WIND       PRES   REMARKS
CHANUTE        CLEAR     73  57  57 NE7       30.16R
PARSONS        PTCLDY    69  59  70 NE3       30.16R
COFFEYVILLE    PTCLDY    73  60  63 NE6       30.13R
EMPORIA        CLEAR     70  56  61 NE7       30.17R
SILOAM SPRINGS CLEAR     72  55  56 NE5       30.16R
HARRISON AR    CLEAR     71  57  61 CALM      30.15R
NEAR YELLVILLE CLEAR     73  57  56 NW3       30.12R

......KANSAS AND MISSOURI......

CITY           SKY/WX    TMP DP  RH WIND       PRES   REMARKS
KANSAS CTY INT PTCLDY    68  60  75 NW6       30.17R
DOWNTOWN KC    CLEAR     74  60  61 CALM      30.16R
COLUMBIA       CLEAR     63  55  75 N7        30.16R
SEDALIA        CLEAR     67  58  72 CALM      30.16R
ST JOSEPH      CLEAR     64  59  83 CALM      30.17R
ST LOUIS       NOT AVBL
SPIRIT OF STL  CLEAR     62  54  74 CALM      30.12R
KIRKSVILLE     MOCLDY    63  58  83 CALM      30.17R
WICHITA        PTCLDY    78  57  48 NE6       30.16R
TOPEKA         CLEAR     70  58  65 N5        30.18R
OLATHE         CLEAR     72  59  63 N5        30.17R

......TENNESSEE......

CITY           SKY/WX    TMP DP  RH WIND       PRES   REMARKS
MEMPHIS        PTCLDY    78  63  59 CALM      30.06R
NASHVILLE      PTCLDY    73  59  61 N7        30.04R

......ARKANSAS.......

CITY           SKY/WX    TMP DP  RH WIND       PRES   REMARKS
FAYETTEVILLE   CLEAR     68  58  70 N5        30.15R
FT SMITH       PTCLDY    79  61  53 NW3       30.10R
LITTLE ROCK    PTCLDY    76  63  64 CALM      30.08R

......OKLAHOMA.......

CITY           SKY/WX    TMP DP  RH WIND       PRES   REMARKS
TULSA          PTCLDY    76  59  55 CALM      30.11R
PONCA CITY     CLEAR     73  65  75 CALM      30.15R
MCALESTER      PTCLDY    71  64  78 CALM      30.14R
OKLAHOMA CITY  MOCLDY    77  61  57 E3        30.16R

......IOWA............

CITY           SKY/WX    TMP DP  RH WIND       PRES   REMARKS
DES MOINES     PTCLDY    67  58  72 W3        30.16R
QUAD CITIES    CLEAR     59  53  80 CALM      30.12R

......ILLINOIS........

CITY           SKY/WX    TMP DP  RH WIND       PRES   REMARKS
QUINCY         MOCLDY    63  56  78 CALM      30.15R
CHICAGO        CLOUDY    62  49  62 SE3       30.07S




USA.gov is the U.S. government's official web portal to all federal, state and local government web resources and services.